Simultaneous Nadir Overpasses (SNOs) Predictions

Prediction of SNOs between AQUA and NPP Satellite Orbit:

Table of predicted SNOs for the next 14.0 days since TLE Epoch: 6/18/2016
Index Date (AQUA) Time (AQUA) Lat,Lon (AQUA) SZA (AQUA ) Date (NPP) Time (NPP) Lat,Lon (NPP) SZA (NPP ) Distance(km) Time Diff (sec)
1 06/19/2016 21:00:01 73.46, 97.72 77.26 06/19/2016 20:58:51 73.46, 97.69 77.33 0.94 70
2 06/19/2016 21:48:57 -75.03, -90.98 104.49 06/19/2016 21:49:04 -75.02, -91.01 104.49 0.99 7
3 06/22/2016 13:16:17 73.99,-145.26 76.72 06/22/2016 13:15:34 73.98,-145.30 76.77 1.51 43
4 06/22/2016 14:05:16 -75.43, 26.01 104.93 06/22/2016 14:05:50 -75.43, 25.97 104.94 1.20 34
5 06/25/2016 05:32:32 74.60, -27.93 76.12 06/25/2016 05:32:16 74.59, -27.97 76.14 1.14 16
6 06/25/2016 06:21:34 -75.87, 143.18 105.36 06/25/2016 06:22:35 -75.87, 143.16 105.40 0.52 61
7 06/27/2016 20:59:48 -73.84, -81.45 102.91 06/27/2016 20:58:42 -73.85, -81.40 102.87 1.69 66
8 06/27/2016 21:48:47 75.19, 89.48 75.57 06/27/2016 21:48:58 75.19, 89.49 75.56 0.20 11
9 06/30/2016 13:16:11 -74.03, 34.85 102.94 06/30/2016 13:15:33 -74.02, 34.79 102.89 2.17 38




NCC Satellite Simultaneous Nadir Overpasses (SNOs) Prediction Service
